This demonstration page uses our WeatherBlox Daily Observations layout. Learn more.

Left ArrowRight Arrow

34.74481, -87.66753

Hourly Observations for May 29, 2020

Temp ( °F °C ) Dew Point ( °F °C ) Humidity (%) Winds ( mph kmh ) Pressure ( in mb ) Visibility ( mi km ) Precip ( " mm )
12:53 am 00:53 Mostly Cloudy 65 18.3 63 17.2 93 93 SE 3 6 29.98 1015 10 16 0.00 0.00
1:53 am 01:53 Partly Cloudy 66 18.9 62 16.7 87 87 ESE 3 6 29.98 1015 10 16 0.00 0.00
2:53 am 02:53 Clear 64 17.8 62 16.7 93 93 Calm 29.97 1015 10 16 0.00 0.00
3:53 am 03:53 Clear 64 17.8 61 16.1 90 90 Calm 29.98 1015 10 16 0.00 0.00
4:53 am 04:53 Mostly Cloudy 65 18.3 61 16.1 87 87 Calm 29.98 1015 10 16 0.00 0.00
5:53 am 05:53 Partly Cloudy 64 17.8 62 16.7 93 93 Calm 30.01 1016 10 16 0.00 0.00
6:53 am 06:53 Cloudy 67 19.4 63 17.2 87 87 Calm 30.02 1017 10 16 0.00 0.00
7:53 am 07:53 Cloudy 68 20 64 17.8 87 87 S 3 6 30.03 1017 10 16 0.00 0.00
8:53 am 08:53 Sunny 73 22.8 66 18.9 79 79 WSW 5 7 30.03 1017 10 16 0.00 0.00
9:53 am 09:53 Sunny 77 25 66 18.9 69 69 VRB 3 6 30.03 1017 10 16 0.00 0.00
10:29 am 10:29 Mostly Cloudy 79 26.1 64 17.8 60 60 WSW 7 11 30.02 1016 10 16 0.00 0.00
10:40 am 10:40 Partly Cloudy 79 26.1 63 17.2 58 58 WSW 7 11 30.02 1016 10 16 0.00 0.00
10:53 am 10:53 Mostly Sunny 80 26.7 64 17.8 58 58 WSW 9 15 30.02 1017 10 16 0.00 0.00
11:53 am 11:53 Mostly Cloudy 81 27.2 64 17.8 57 57 WSW 10 17 30.02 1017 10 16 0.00 0.00
12:53 pm 12:53 Mostly Sunny 82 27.8 64 17.8 55 55 WNW 13 20 30.01 1016 10 16 0.00 0.00
1:53 pm 13:53 Partly Cloudy 84 28.9 65 18.3 53 53 W 9 15 29.99 1016 10 16 0.00 0.00
2:53 pm 14:53 Mostly Sunny 85 29.4 63 17.2 48 48 WNW 10 17 29.99 1016 10 16 0.00 0.00
3:53 pm 15:53 Mostly Sunny 84 28.9 64 17.8 51 51 NW 7 11 29.98 1015 10 16 0.00 0.00
4:53 pm 16:53 Cloudy 81 27.2 64 17.8 57 57 W 9 15 30.00 1016 10 16 0.00 0.00
5:53 pm 17:53 Cloudy 81 27.2 64 17.8 57 57 WNW 6 9 30.00 1016 10 16 0.00 0.00
6:53 pm 18:53 Cloudy 82 27.8 65 18.3 56 56 NW 6 9 30.01 1016 10 16 0.00 0.00
7:53 pm 19:53 Mostly Cloudy 77 25 65 18.3 66 66 NW 5 7 30.01 1016 10 16 0.00 0.00
8:53 pm 20:53 Clear 75 23.9 64 17.8 69 69 NNW 5 7 30.02 1017 10 16 0.00 0.00
9:53 pm 21:53 Clear 73 22.8 64 17.8 74 74 NNW 5 7 30.04 1017 10 16 0.00 0.00
10:53 pm 22:53 Clear 73 22.8 64 17.8 74 74 N 5 7 30.05 1018 10 16 0.00 0.00
11:53 pm 23:53 Clear 71 21.7 65 18.3 81 81 NNE 3 6 30.06 1018 10 16 0.00 0.00

Powered by AerisWeather